Location: Afon Dwyryd
(52.9167°N, 4.1500°W)
Time: 14:16:27
(UTC+00:00)

Daily predictions for brighter satellites

Satellite Brightness Start Highest point End
(mag) Time Altitude Azimuth Time Altitude Azimuth Time Altitude Azimuth
ERS-1 Rocket 3.1 21:23:12 10° SSE 21:28:13 74° ENE 21:33:16 10° NNW
Cosmos 1452 Rocket 3.8 21:24:00 10° SSW 21:29:16 78° WNW 21:34:34 10° NNE
Cosmos 1892 4.2 21:27:09 10° SE 21:29:57 20° E 21:32:47 10° NE
Meteor 1-21 Rocket 4.3 21:26:53 10° S 21:32:27 68° E 21:38:10 10° NNE
Cosmos 1110 Rocket 4.0 21:27:26 10° SSW 21:32:43 78° ESE 21:38:03 10° NNE
Cosmos 2228 3.3 21:29:27 10° NNW 21:33:40 67° W 21:37:52 10° S
Cosmos 1302 Rocket 4.5 21:30:54 10° S 21:35:45 41° ESE 21:40:37 10° NE
Cosmos 2154 Rocket 4.1 21:30:31 10° NNW 21:36:47 84° W 21:42:58 10° S
Cosmos 968 Rocket 3.6 21:35:40 10° NNW 21:40:55 89° WSW 21:46:10 10° SSE
Cosmos 1892 Rocket 4.0 21:38:55 10° SSE 21:43:04 43° E 21:47:12 10° NNE
Cosmos 1697 Rocket 3.5 21:38:01 10° NW 21:43:21 45° WSW 21:48:38 10° S
Cosmos 1980 Rocket 2.3 21:38:28 10° NNW 21:44:12 78° WSW 21:49:51 10° SSE
Cosmos 2219 Rocket 4.4 21:42:03 10° NNW 21:46:00 19° NNE 21:49:57 10° ENE
SL-16 R/B 3.1 21:41:25 10° NNW 21:46:51 43° NE 21:52:14 10° ESE
Cosmos 2058 Rocket 3.3 21:44:31 10° N 21:48:54 58° ENE 21:53:18 10° SSE
SL-8 Rocket 4.3 21:45:47 10° N 21:51:57 57° ENE 21:58:01 10° SSE
Cosmos 1408 3.2 21:48:53 10° SSE 21:52:04 36° E 21:55:16 10° NNE
Cosmos 2369 4.1 21:46:56 10° NW 21:52:37 63° WSW 21:58:15 10° SSE
CZ-2C R/B 3.8 21:48:50 10° NNE 21:53:21 58° ESE 21:57:45 10° S
ATLAS 5 CENTAUR R/B 2.6 21:51:29 10° SSE 21:54:22 21° ESE 21:57:31 10° ENE
Resurs 01 Rocket 4.0 21:52:39 10° SW 21:55:50 19° W 21:59:03 10° NW
SJ 16-02 2.9 21:55:19 10° N 21:59:09 27° NE 22:02:56 10° ESE
H-2A R/B 4.3 21:57:06 10° N 22:00:55 29° WNW 22:04:47 10° WSW
COSMOS 2406 3.2 21:59:02 10° SSW 22:04:48 80° ESE 22:10:35 10° NNE
Cosmos 1833 Rocket 3.2 22:04:34 10° SW 22:10:09 65° NW 22:15:47 10° NNE
Cosmos 1867 4.2 22:05:08 10° NW 22:10:24 48° WSW 22:15:18 12° SSE
Cosmos 1825 3.2 22:08:00 13° SSE 22:10:49 30° E 22:14:08 10° NNE
Cosmos 2366 rocket 4.2 22:06:02 10° N 22:12:22 67° ENE 22:18:15 12° SSE
Cosmos 1869 3.6 22:11:23 10° N 22:15:13 52° ENE 22:18:25 14° SSE
CZ-4B R/B 4.1 22:14:19 10° NNW 22:16:07 15° WNW 22:17:55 10° W
Cosmos 2218 Rocket 4.1 22:12:25 10° N 22:18:52 74° ENE 22:24:42 13° SSE
Cosmos 2322 Rocket 2.8 22:15:26 10° NNW 22:21:00 52° NE 22:26:28 10° SE
Meteor 1-27 4.2 22:16:56 10° N 22:22:32 77° ENE 22:27:27 14° SSE
GP-B 3.2 22:18:06 10° N 22:22:33 67° E 22:26:27 13° S
ARIANE 5 R/B 3.1 22:21:47 11° S 22:26:02 58° W 22:30:23 10° NNW
SAR-Lupe-4 4.2 22:23:37 10° NNE 22:27:02 40° E 22:29:35 16° SSE
USA 276 2.9 22:24:20 10° W 22:27:03 31° SSW 22:28:42 18° SSE
Terra 2.7 22:23:18 10° S 22:27:53 45° W 22:32:28 10° NNW
FALCON 9 DEB 4.2 22:25:55 10° W 22:28:46 28° SSW 22:30:31 17° SSE
Cosmos 1959 Rocket 4.5 22:22:50 10° N 22:28:59 81° E 22:34:27 14° SSE
SPOT 5 4.2 22:27:21 10° SSW 22:31:06 28° W 22:34:52 10° NW
USA 234 3.5 22:25:22 10° ESE 22:31:57 78° NNE 22:38:30 10° WNW
Cosmos 2278 4.1 22:28:54 10° NW 22:34:30 57° WSW 22:39:18 14° S
BREEZE-M DEB (TANK) 3.2 22:32:28 10° WSW 22:35:09 55° S 22:43:24 10° ESE
Cosmos 2341 Rocket 4.3 22:31:54 10° NNW 22:38:09 65° W 22:44:11 11° S
Cosmos 1633 3.4 22:39:00 18° SE 22:40:59 32° E 22:44:06 10° NNE
Cosmos 2333 Rocket 3.4 22:36:23 10° NNW 22:41:45 37° NE 22:47:05 10° ESE
Cosmos 1992 Rocket 4.0 22:38:01 10° SSW 22:43:12 67° ESE 22:48:25 10° NNE
SAR-Lupe-1 4.0 22:40:17 10° NNE 22:43:53 69° ESE 22:46:41 16° S
Okean 1-7 Rocket 3.6 22:40:57 14° S 22:44:47 73° E 22:49:19 10° NNE
Cosmos 1758 Rocket 4.4 22:42:24 17° SSE 22:45:16 35° E 22:49:17 10° NNE
Cosmos 1486 Rocket 4.3 22:40:45 10° NNW 22:45:53 60° WSW 22:50:04 16° S
ASTEX 1 3.5 22:41:29 10° N 22:46:31 85° W 22:51:09 12° S
Meteor 1-11 4.5 22:42:03 10° SSW 22:47:38 70° WNW 22:53:13 10° N
Cosmos 2082 Rocket 2.5 22:42:44 10° SW 22:48:26 74° WNW 22:54:10 10° NNE
Cosmos 1606 3.5 22:48:05 10° N 22:51:47 41° ENE 22:54:21 18° SE
Cosmos-2242 3.3 22:47:59 10° N 22:52:11 58° ENE 22:55:10 18° SSE
Cosmos 1812 Rocket 3.6 22:48:28 10° N 22:52:58 73° ENE 22:56:09 19° SSE
Cosmos 2360 Rocket 2.6 22:49:53 10° NNW 22:55:32 60° NE 23:00:32 13° SE
ADEOS Rocket 3.9 22:53:14 14° SE 22:59:46 62° ENE 23:07:26 10° NNW
Gbstr 26 Del rocket 4.3 22:59:00 19° SSE 23:00:00 21° SE 23:03:34 10° E
Cosmos 807 4.1 22:57:50 10° NNW 23:00:54 76° W 23:02:30 24° S
Cosmos 1932 4.5 22:58:50 10° SW 23:05:05 89° SE 23:11:30 10° NE
Cosmos 1892 3.8 23:01:40 10° SW 23:05:15 41° WNW 23:08:52 10° N
Cosmos 1821 Rocket 4.0 23:00:20 10° N 23:06:37 81° ENE 23:11:22 18° SSE
Cosmos 2181 Rocket 4.2 23:01:58 10° SSW 23:08:08 74° WNW 23:14:27 10° N
Cosmos 1602 Rocket 3.5 23:05:35 18° S 23:08:41 73° E 23:13:02 10° NNE
Cosmos 1354 Rocket 4.2 23:10:34 10° NNW 23:15:51 67° WSW 23:19:33 19° S
Cosmos 2237 4.3 23:12:37 10° NW 23:18:21 73° WSW 23:22:29 19° SSE
Cosmos 2237 Rocket 4.4 23:16:49 10° NNW 23:21:12 22° NNE 23:25:33 10° E
ERS-2 3.9 23:18:58 10° NE 23:21:33 18° E 23:22:56 15° ESE
ALOS 2 2.7 23:21:37 21° SSE 23:24:31 75° ENE 23:28:56 10° NNW
CENTAUR R/B 4.4 23:22:57 10° ESE 23:25:03 12° E 23:27:16 10° E
Spot 4 3.9 23:21:49 20° S 23:25:07 74° WSW 23:29:57 10° NNW
Cosmos 1980 Rocket 4.3 23:24:00 10° WNW 23:27:16 16° W 23:30:32 10° SW
COSMOS 2428 3.8 23:22:50 10° NNW 23:28:14 41° NE 23:33:37 10° ESE
Cosmos 1777 Rocket 4.1 23:24:13 10° NNW 23:29:31 75° WSW 23:33:07 21° SSE
H-2A R/B 3.8 23:26:18 10° NNE 23:30:25 50° E 23:32:48 23° SSE
Cosmos 1626 Rocket 4.3 23:27:11 12° SSW 23:31:01 49° WNW 23:35:18 10° N
SL-16 R/B 2.8 23:25:38 10° NW 23:31:02 46° WSW 23:34:48 19° S
Cosmos 2219 Rocket 2.8 23:25:42 10° NNW 23:31:17 53° NE 23:36:41 11° SE
Cosmos 2058 3.2 23:29:58 23° SSE 23:32:21 53° E 23:36:26 10° NNE
Nadezhda 3 Rocket 4.0 23:28:02 18° S 23:32:41 76° E 23:38:52 10° NNE
Cosmos 1953 Rocket 4.2 23:33:03 21° SSE 23:35:33 42° E 23:39:44 10° NNE
SJ 16-02 1.9 23:33:39 10° NNW 23:37:56 48° WSW 23:40:31 22° S
ATLAS 5 CENTAUR R/B 1.8 23:34:33 10° WSW 23:38:21 64° NW 23:42:49 10° NE
USA 267 3.4 23:32:13 10° ENE 23:38:36 53° SE 23:44:58 10° SW
Meteor 2-2 Rocket 4.4 23:33:47 10° NNW 23:39:50 86° ENE 23:44:11 20° SSE
Cosmos 2322 4.2 23:34:51 10° NNW 23:40:28 57° NE 23:45:45 11° SE
SL-4 R/B 2.3 23:40:05 26° S 23:41:10 32° SSE 23:44:30 10° E
Cosmos 1825 Rocket 3.5 23:41:10 23° S 23:43:48 74° E 23:48:10 10° NNE
Cosmos 1825 3.9 23:42:56 10° SW 23:46:10 27° WNW 23:49:25 10° N
COSMOS 2455 4.3 23:43:08 10° NW 23:48:43 37° NNE 23:54:16 10° E
Cosmos 2221 2.9 23:45:10 10° N 23:49:30 59° ENE 23:52:14 21° SSE
